Simultaneous Nadir Overpasses (SNOs) Predictions

Prediction of SNOs between METOP-A and NOAA-19 Satellite Orbit:

Table of predicted SNOs for the next 14.0 days since TLE Epoch: 6/5/2021
Index Date (METOP-A) Time (METOP-A) Lat,Lon (METOP-A) SZA (METOP-A ) Date (NOAA-19) Time (NOAA-19) Lat,Lon (NOAA-19) SZA (NOAA-19 ) Distance(km) Time Diff (sec)
1 06/13/2021 23:48:51 -80.85, 11.53 122.36 06/13/2021 23:47:41 -80.83, 11.37 122.38 3.16 70
2 06/14/2021 00:39:32 80.83, 178.60 57.62 06/14/2021 00:38:45 80.83, 178.69 57.62 1.70 47
3 06/14/2021 01:30:13 -80.84, -13.96 122.37 06/14/2021 01:29:41 -80.83, -14.00 122.38 0.76 32
4 06/14/2021 02:20:53 80.84, 153.45 57.64 06/14/2021 02:20:45 80.83, 153.31 57.62 2.61 8
5 06/14/2021 03:11:35 -80.83, -39.45 122.39 06/14/2021 03:11:41 -80.84, -39.37 122.38 1.69 6
6 06/14/2021 04:02:15 80.83, 127.96 57.62 06/14/2021 04:02:45 80.84, 127.93 57.63 0.75 30
7 06/14/2021 04:52:56 -80.84, -64.59 122.38 06/14/2021 04:53:41 -80.84, -64.75 122.38 2.70 45



Historial Predications of SNOs between METOP-A and NOAA-19
